Home > Weather > Wainwright > Past weeks

Flag for USA Past Weather in Wainwright, Alaska, USA — Yesterday and Last 2 Weeks

Now
45 °F

Mostly cloudy.


Feels Like: 41 °F
Forecast: 37 / 44 °F
Wind: 7 mph from West

Location: Wainwright Distant Early Warning

Current Time: Jun 24, 2016 at 12:20:51 PM

Latest Report: Jun 24, 2016 at 11:53 AM


Visibility: 10 mi

Pressure: 29.81 "Hg

Humidity: 90%

Dew Point: 42 °F

Location of WainwrightLocation

Past Weather in Wainwright — Graph

°F

Wainwright Temperature Yesterday

Maximum temperature yesterday: 68 °F (at 1:53 PM)
Minimum temperature yesterday: 45 °F (at 10:53 PM)
Average temperature yesterday: 56 °F

High & Low Weather Summary for the Past Weeks

 TemperatureHumidityPressure
High70 °F (Jun 17, 2:53 PM)100% (Jun 10, 12:53 AM)30.27 "Hg (Jun 10, 12:53 AM)
Low30 °F (Jun 14, 3:53 AM)44% (Jun 17, 2:53 PM)29.46 "Hg (Jun 18, 2:53 AM)
Average41 °F80%29.84 "Hg
* Reported Jun 9 10:53 AM — Jun 24 10:53 AM, Wainwright, Weather by CustomWeather, © 2016

Note: Actual official high and low records may vary slightly from our data, if they occured in-between our weather recording intervals... More about our weather records

Advertising

Wainwright Weather History for the Previous 24 Hours

Scroll right to see more
 ConditionsComfort  
Time TempWeatherWind HumidityBarometerVisibility
10:53 AM
Fri, Jun 24
46 °FMore clouds than sun.8 mph86%29.80 "Hg10 mi
9:53 AM47 °FOvercast.6 mph90%29.79 "Hg10 mi
8:53 AM46 °FMostly cloudy.6 mph93%29.78 "Hg10 mi
7:53 AM44 °FFog.6 mph93%29.77 "Hg1 mi
6:53 AM43 °FFog.5 mph93%29.78 "Hg0 mi
5:53 AM43 °FLow clouds.No wind100%29.77 "Hg8 mi
4:53 AM44 °FPartly sunny.9 mph89%29.75 "Hg10 mi
3:53 AM43 °FOvercast.No wind93%29.75 "Hg10 mi
2:53 AM44 °FPartly sunny.5 mph93%29.74 "Hg10 mi
1:53 AM45 °FLight rain. More clouds than sun.8 mph90%29.73 "Hg10 mi
12:53 AM47 °FCloudy.9 mph90%29.72 "Hg10 mi
11:53 PM
Thu, Jun 23
47 °FLight rain. More clouds than sun.9 mph86%29.71 "Hg7 mi
10:53 PM45 °FPartly sunny.10 mph86%29.70 "Hg10 mi
9:53 PM47 °FMostly cloudy.13 mph86%29.70 "Hg10 mi
8:53 PM47 °FOvercast.12 mph80%29.69 "Hg10 mi
7:53 PM50 °FOvercast.8 mph74%29.69 "Hg10 mi
6:53 PM56 °FScattered clouds.10 mph70%29.68 "Hg10 mi
5:53 PM62 °FPassing clouds.10 mph62%29.68 "Hg10 mi
4:53 PM61 °FSunny.9 mph67%29.69 "Hg10 mi
3:53 PM62 °FSunny.9 mph62%29.69 "Hg9 mi
2:53 PM65 °FSunny.7 mph61%29.70 "Hg10 mi
1:53 PM68 °FPartly sunny.5 mph57%29.69 "Hg10 mi
12:53 PM64 °FPassing clouds.8 mph63%29.70 "Hg10 mi
Weather by CustomWeather, © 2016

See weather overviewHow to use our weather pages